Location: ?????
(38.1103°N, 23.8416°E)
Time: 04:50:29
(UTC+00:00)

Daily predictions for brighter satellites

Satellite Brightness Start Highest point End
(mag) Time Altitude Azimuth Time Altitude Azimuth Time Altitude Azimuth
Cosmos 1833 Rocket 4.1 02:21:48 31° SE 02:21:48 31° SE 02:24:38 10° SSE
COSMOS 2455 3.5 02:23:46 50° ESE 02:23:46 50° ESE 02:28:19 10° SE
Cosmos 1464 Rocket 4.3 02:37:50 23° N 02:41:50 64° E 02:47:59 10° SSE
USA 215 4.1 02:40:42 10° E 02:46:44 42° NNE 02:48:57 32° N
Hubble Space Telescope 3.1 02:49:47 18° SSE 02:49:47 18° SSE 02:51:38 10° SE
Cosmos 1842 Rocket 4.3 02:59:09 47° SSE 02:59:09 47° SSE 03:02:23 10° SSE
Cosmos 540 Rocket 3.4 03:02:10 67° NNE 03:02:48 78° ENE 03:07:55 10° SSE
Cosmos 1891 Rocket 4.4 03:03:59 40° NNW 03:06:24 70° W 03:12:48 10° S
Cosmos 1513 Rocket 4.5 03:12:55 35° NNW 03:15:36 62° W 03:21:53 10° S
Aureole 1 Rocket 3.9 03:14:20 10° S 03:17:19 33° ESE 03:20:03 10° NE
H-2A R/B 3.1 03:15:01 10° NNE 03:18:40 61° E 03:22:21 10° S
Cosmos 2151 3.2 03:15:31 10° S 03:19:44 69° E 03:24:01 10° NNE
Cosmos 2221 4.0 03:22:39 25° SSW 03:22:39 25° SSW 03:24:37 10° S
Cosmos 2034 Rocket 3.9 03:18:27 10° N 03:24:42 85° W 03:30:58 10° S
Cosmos 1816 Rocket 4.3 03:20:33 10° S 03:26:42 77° W 03:32:59 10° N
Cosmos 2082 Rocket 2.1 03:26:14 38° NW 03:28:24 70° WSW 03:33:58 10° SSE
Meteor 2-3 Rocket 3.8 03:24:15 10° S 03:29:50 81° E 03:35:33 10° N
Cosmos 2297 3.7 03:24:27 10° SSW 03:30:12 89° ESE 03:35:58 10° NNE
SJ-12 3.8 03:27:18 10° NNE 03:31:27 87° W 03:35:34 10° SSW
COSMOS 2406 3.7 03:32:04 37° WSW 03:32:04 37° WSW 03:37:02 10° S
Cosmos 2344 3.6 03:30:16 29° WSW 03:33:48 49° NW 03:41:11 10° NNE
Cosmos 841 Rocket 3.3 03:32:39 33° NNW 03:34:58 69° WSW 03:40:05 10° S
Gbstr 26 Del rocket 4.0 03:36:32 26° N 03:37:53 33° NNE 03:41:48 10° E
FALCON 9 DEB 3.2 03:37:52 53° SSW 03:38:31 74° SE 03:41:54 10° NE
Cosmos 1943 Rocket 2.1 03:33:22 10° SSW 03:39:01 78° WNW 03:44:43 10° NNE
CZ-2C R/B 2.8 03:34:18 10° SSE 03:39:51 79° ENE 03:45:19 10° N
Cosmos 2098 Rocket 4.2 03:40:19 10° SSE 03:43:22 36° E 03:47:02 10° NNE
Tsikada Rocket 3.9 03:38:23 10° SSW 03:44:31 71° W 03:50:45 10° N
Cosmos 2278 Rocket 4.1 03:47:02 13° NNW 03:47:02 13° NNW 03:48:13 10° NNW
Envisat 2.9 03:41:34 10° N 03:46:37 67° WNW 03:51:38 10° SSW
NOSS 3-2 (A) 3.5 03:45:45 27° WSW 03:48:23 45° NW 03:54:21 10° NNE
CENTAUR R/B 2.4 03:44:23 14° SW 03:49:11 58° NW 03:55:54 10° NNE
H-2A R/B 4.4 03:46:24 10° ESE 03:49:35 21° ENE 03:52:49 10° NNE
OAO 3 Rocket 3.6 03:47:24 29° WSW 03:49:42 56° S 03:54:31 10° ESE
Cosmos 1634 Rocket 4.2 03:44:39 10° N 03:50:58 72° E 03:57:10 10° SSE
NOSS 3-2 (C) 3.1 03:47:38 10° SW 03:53:01 74° NW 03:59:12 10° NNE
Cosmos 2084 Rocket 4.4 03:55:10 24° NNW 03:55:10 24° NNW 03:57:44 10° N
CZ-4B R/B 4.1 03:55:30 10° NNE 03:58:53 38° E 04:02:12 10° S
Cosmos 1570 Rocket 3.9 03:54:33 10° NNW 03:59:48 80° WSW 04:05:02 10° SSE
MOS 1-B Rocket 4.2 03:53:50 10° S 04:00:33 54° WSW 04:06:27 10° NNW
BREEZE-M DEB (TANK) 4.0 03:57:32 22° WNW 04:01:01 51° SW 04:05:08 10° SE
CBERS 1 LM4 rocket 4.4 03:57:27 10° N 04:02:09 55° WNW 04:06:59 10° SSW
Cosmos 1833 Rocket 4.4 04:03:34 13° WSW 04:03:34 13° WSW 04:05:09 10° SW
Iridium 2 3.7 03:58:49 10° S 04:02:35 82° E 04:06:24 10° N
Cosmos 968 Rocket 3.4 03:58:59 10° SSW 04:04:08 71° WNW 04:09:18 10° NNE
CZ-4B R/B 4.5 04:04:44 10° E 04:06:10 12° ENE 04:07:37 10° NE
Cosmos 1782 2.6 04:02:56 10° N 04:06:54 74° W 04:10:49 10° S
Cosmos 921 Rocket 4.0 04:02:43 10° N 04:06:59 49° ENE 04:11:17 10° SSE
Cosmos 1862 3.9 04:03:29 10° S 04:07:20 58° E 04:11:14 10° NNE
COSMOS 2455 4.2 04:06:58 18° W 04:07:39 18° WSW 04:11:31 10° SW
COSMO-SKYMED 1 2.8 04:04:28 10° S 04:08:38 48° W 04:12:51 10° NNW
Landsat 5 3.6 04:05:27 10° S 04:09:53 63° WSW 04:14:23 10° NNW
Cosmos 1867 3.6 04:10:15 10° NNW 04:15:45 85° ENE 04:21:12 10° SSE
Cosmos 1151 Rocket 3.3 04:12:33 10° N 04:16:57 71° E 04:21:18 10° SSE
YAOGAN 6 4.0 04:15:23 10° NNW 04:18:02 19° WNW 04:20:40 10° WSW
FALCON 9 DEB 4.2 04:18:06 19° NW 04:18:28 20° NNW 04:20:42 10° NNE
Meteor 1-31 Rocket 3.6 04:16:52 10° N 04:20:14 29° WNW 04:23:37 10° SW
Cosmos 1814 Rocket 4.4 04:16:09 10° NNW 04:20:57 41° WSW 04:25:44 10° S
USA 238 DEB 3.9 04:15:10 10° WSW 04:21:19 45° NW 04:27:49 10° NNE
USA 238 3.9 04:15:16 10° WSW 04:21:25 46° NW 04:27:55 10° NNE
Cosmos 1241 Rocket 4.5 04:16:00 10° NNW 04:22:14 86° ENE 04:28:26 10° SSE
Cosmos 1812 2.6 04:19:30 10° N 04:23:21 84° W 04:27:11 10° S
Cosmos 2208 Rocket 4.2 04:21:20 10° NNW 04:26:40 57° WSW 04:31:54 10° S
Cosmos 1933 4.4 04:23:59 10° NW 04:27:16 25° W 04:30:33 10° SW
Genesis I 4.3 04:23:38 10° NNW 04:27:35 44° NE 04:31:28 10° SE
CZ-3 R/B 4.3 04:23:28 10° SSW 04:28:11 14° S 04:31:17 10° SE
Hubble Space Telescope 2.9 04:26:11 10° SW 04:29:10 19° S 04:32:08 10° SE
USA 215 3.4 04:23:09 10° SSE 04:29:34 58° SW 04:35:59 10° NW
Cosmos 1408 Rocket 4.2 04:30:41 10° S 04:34:54 58° E 04:39:09 10° NNE
SMAP 3.6 04:31:16 10° NNE 04:35:55 66° E 04:40:30 10° S
NOAA 12 4.1 04:30:37 10° NNE 04:35:55 85° WNW 04:41:09 10° SSW
Cosmos 2369 Rocket 2.2 04:32:30 10° SW 04:37:59 57° WNW 04:43:29 10° NNE
Cosmos 1503 Rocket 4.1 04:38:44 10° SSW 04:43:58 89° ESE 04:49:18 10° NNE
BREEZE-M DEB (TANK) 4.4 04:39:37 10° WNW 04:51:49 53° NNE 04:55:29 10° E
Cosmos 1515 Rocket 4.1 04:47:51 10° N 04:52:12 64° E 04:56:30 10° SSE
Cosmos 1486 Rocket 4.4 04:47:29 10° SW 04:52:31 43° WNW 04:57:35 10° N
PSLV R/B 4.4 04:50:20 10° NNE 04:54:12 65° E 04:58:08 10° S
Cosmos 1939 Rocket 2.9 04:51:09 10° N 04:55:02 56° WNW 04:58:50 10° SSW
Meteor 2-15 4.5 04:49:33 10° N 04:55:39 87° W 05:01:41 10° S
NOAA 6 4.1 04:50:45 10° NNE 04:55:53 86° WNW 05:00:59 10° SSW
DELTA 2 R/B (1) 4.1 04:50:52 10° WSW 04:56:19 62° SSE 05:01:48 10° ENE
